Location: Eurasberg
(48.3353°N, 11.0839°E)
Time: 14:50:35
(UTC+00:00)

Cosmos 2369 Rocket - Pass Details

Date: 18 January 2026
Orbit: 827 x 852 km, 71.0° (Epoch: 18 February)

Event Time Altitude Azimuth Distance (km) Brightness Sun altitude
Rises 05:14:15 0° 172° (S) 3,391 5.6 -17.1°
Reaches altitude 10° 05:16:58 10° 161° (SSE) 2,465 5.0 -16.7°
Maximum altitude 05:21:44 29° 104° (ESE) 1,526 4.4 -15.9°
Drops below altitude 10° 05:26:32 10° 46° (NE) 2,489 5.1 -15.1°
Sets 05:29:17 0° 36° (NE) 3,430 5.7 -14.7°
